DateTimeUTC,F1_A11,F1_S11,BsB_S11,BsG_S11,BsR_S11,BbsB_S11,BbsG_S11,BbsR_S11,BaB_A11,BaG_A11,BaR_A11,Tu_S11,T_S11,Uu_S11,U_S11,P_S11,T1_A11
2021-05-05T04:00:00Z,00000200,21000000,,,,,,,-000.16,-000.15,-000.07,16.1,23.2,,00.0,0676.4,30.9
2021-05-05T04:01:00Z,00000200,21000000,,,,,,,0000.27,0000.19,0000.40,16.2,23.2,,00.0,0676.4,30.9
2021-05-05T04:02:00Z,00000200,21000000,,,,,,,-000.21,-000.09,-000.25,16.2,23.2,,00.0,0676.4,30.9
2021-05-05T04:03:00Z,00000200,61000000,,,,,,,0000.66,0000.38,0000.36,16.2,23.2,,00.0,0676.4,30.9
2021-05-05T04:04:00Z,00000200,41000000,0003.57,0002.31,0001.56,-000.07,0000.33,0000.32,0001.19,0001.41,0000.83,16.5,23.1,,00.0,0677.4,30.9
2021-05-05T04:05:00Z,00000200,01000000,0003.88,0002.23,0001.68,0000.47,0000.28,0000.56,0000.98,0000.98,0000.71,16.4,23.1,,00.0,0677.4,30.9
2021-05-05T04:06:00Z,00000200,01000000,0003.58,0002.27,0001.41,0000.58,0000.23,0000.52,0001.09,0000.92,0000.76,16.3,23.0,,00.0,0677.4,30.8
2021-05-05T04:07:00Z,00000200,01000000,0003.39,0002.61,0001.79,0001.00,0000.22,0000.62,0000.85,0000.18,0000.27,16.2,22.9,,00.0,0677.4,30.8
2021-05-05T04:08:00Z,00000200,01000000,0003.90,0002.47,0001.65,0000.64,0000.36,0000.67,0000.78,0000.82,0000.55,16.1,22.9,,00.0,0677.4,30.8
2021-05-05T04:09:00Z,00000200,01000000,0004.87,0002.60,0001.61,0000.91,0000.41,0000.61,0001.49,0001.29,0000.86,16.2,22.9,,00.0,0677.4,30.8
2021-05-05T04:10:00Z,00000200,01000000,0004.16,0002.63,0001.83,0000.26,0000.56,0000.48,0001.16,0000.86,0000.83,16.2,22.9,,00.0,0677.4,30.8
2021-05-05T04:11:00Z,00000200,01000000,0004.42,0002.61,0001.63,0000.53,0000.43,0000.50,0001.22,0001.33,0000.71,16.3,22.9,,00.0,0677.4,30.8
2021-05-05T04:12:00Z,00000200,01000000,0003.96,0002.41,0001.50,0000.43,0000.22,0000.32,0001.03,0001.08,0000.70,16.4,22.9,,00.0,0677.4,30.9
2021-05-05T04:13:00Z,00000200,01000000,0003.61,0002.50,0001.54,0000.44,0000.29,0000.66,0000.93,0000.66,0000.93,16.5,23.0,,00.0,0677.4,30.9
2021-05-05T04:14:00Z,00000200,01000000,0003.84,0002.58,0001.38,0000.20,0000.36,0000.30,0001.34,0001.28,0000.80,16.5,23.0,,00.0,0677.4,30.9
2021-05-05T04:15:00Z,00000200,01000000,0003.38,0002.37,0001.94,0000.12,0000.38,0000.45,0000.90,0000.63,0000.29,16.5,23.0,,00.0,0677.4,30.9
2021-05-05T04:16:00Z,00000200,01000000,0004.14,0002.63,0001.77,0000.32,0000.40,0000.51,0001.05,0001.09,0000.88,16.5,23.0,,00.0,0677.4,30.9
2021-05-05T04:17:00Z,00000200,01000000,0003.53,0002.33,0001.89,0000.75,0000.19,0000.77,0001.31,0001.16,0000.98,16.4,23.0,,00.0,0677.4,30.9
2021-05-05T04:18:00Z,00000200,01000000,0003.50,0002.51,0001.53,0000.43,0000.29,0000.25,0001.31,0001.27,0000.80,16.3,23.0,,00.0,0677.4,30.8
2021-05-05T04:19:00Z,00000200,01000000,0003.70,0002.90,0001.75,0000.52,0000.31,0000.60,0001.10,0001.06,0001.04,16.2,22.9,,00.0,0677.4,30.8
2021-05-05T04:20:00Z,00000200,01000000,0003.53,0002.58,0001.59,0000.87,0000.47,0000.30,0001.13,0001.01,0000.46,16.1,22.9,,00.0,0677.3,30.8
2021-05-05T04:21:00Z,00000200,01000000,0004.05,0002.62,0001.62,0000.19,0000.23,0000.29,0001.45,0001.09,0001.01,16.0,22.8,,00.0,0677.4,30.8
2021-05-05T04:22:00Z,00000200,01000000,0003.76,0002.37,0001.46,0000.67,0000.35,0000.38,0000.84,0000.20,0000.28,15.9,22.8,,00.0,0677.4,30.8
2021-05-05T04:23:00Z,00000200,01000000,0004.46,0002.53,0001.85,0000.61,0000.32,0000.50,0001.37,0001.14,0000.86,15.9,22.7,,00.0,0677.4,30.8
2021-05-05T04:24:00Z,00000200,01000000,0004.17,0002.89,0001.78,0000.76,0000.28,0000.57,0000.91,0001.05,0000.64,15.9,22.7,,00.0,0677.4,30.8
2021-05-05T04:25:00Z,00000200,01000000,0004.19,0002.59,0001.51,0000.62,0000.24,0000.31,0001.15,0001.46,0000.80,16.0,22.7,,00.0,0677.4,30.8
2021-05-05T04:26:00Z,00000200,01000000,0004.08,0002.53,0001.77,0000.67,0000.38,0000.53,0001.28,0000.64,0000.96,16.1,22.8,,00.0,0677.4,30.8
2021-05-05T04:27:00Z,00000200,01000000,0003.62,0002.49,0001.81,0000.42,0000.49,-000.01,0001.37,0001.58,0000.97,16.2,22.8,,00.0,0677.3,30.8
2021-05-05T04:28:00Z,00000200,01000000,0004.02,0002.71,0001.52,0000.86,0000.25,0000.36,0001.04,0000.99,0000.89,16.3,22.8,,00.0,0677.3,30.8
2021-05-05T04:29:00Z,00000200,01000000,0004.33,0002.52,0001.99,0000.33,0000.53,0000.71,0001.08,0001.13,0000.43,16.3,22.9,,00.0,0677.3,30.9
2021-05-05T04:30:00Z,00000200,01000000,0004.28,0002.82,0001.72,0000.65,0000.34,0000.24,0001.50,0001.21,0001.02,16.4,22.9,,00.0,0677.3,30.9
2021-05-05T04:31:00Z,00000200,01000000,0004.41,0002.82,0001.55,0000.45,0000.41,0000.20,0001.08,0000.80,0000.88,16.4,22.9,,00.0,0677.3,30.9
2021-05-05T04:32:00Z,00000200,01000000,0003.83,0002.56,0001.82,0000.59,0000.29,0000.32,0001.48,0001.24,0000.84,16.4,22.9,,00.0,0677.3,30.8
2021-05-05T04:33:00Z,00000200,01000000,0003.82,0002.50,0001.95,0000.89,0000.34,0000.33,0000.84,0001.40,0000.76,16.3,22.9,,00.0,0677.3,30.8
2021-05-05T04:34:00Z,00000200,01000000,0004.64,0002.37,0001.69,0000.98,0000.44,0000.60,0001.27,0001.13,0000.92,16.2,22.8,,00.0,0677.3,30.8
2021-05-05T04:35:00Z,00000200,01000000,0004.03,0002.73,0001.82,0000.65,0000.63,0000.51,0001.01,0000.90,0000.24,16.1,22.8,,00.0,0677.3,30.8
2021-05-05T04:36:00Z,00000200,01000000,0004.77,0002.53,0001.73,-000.03,0000.28,0000.31,0001.53,0000.96,0001.27,16.0,22.7,,00.0,0677.3,30.8
2021-05-05T04:37:00Z,00000200,01000000,0003.05,0002.64,0001.81,0000.36,0000.48,0000.24,0000.59,0000.28,0000.05,15.9,22.7,,00.0,0677.3,30.8
2021-05-05T04:38:00Z,00000200,01000000,0004.35,0002.82,0001.72,0000.53,0000.49,0000.60,0000.86,0001.09,0000.74,15.8,22.6,,00.0,0677.3,30.8
2021-05-05T04:39:00Z,00000200,01000000,0004.11,0002.70,0001.83,0000.72,0000.66,0000.34,0001.42,0000.79,0000.79,15.9,22.6,,00.0,0677.3,30.8
2021-05-05T04:40:00Z,00000200,01000000,0004.78,0002.65,0001.85,0000.28,0000.60,0000.25,0001.11,0001.36,0000.94,15.9,22.7,,00.0,0677.3,30.8
2021-05-05T04:41:00Z,00000200,01000000,0004.65,0002.92,0001.96,0001.07,0000.58,0000.35,0001.36,0001.36,0000.86,16.0,22.7,,00.0,0677.3,30.8
2021-05-05T04:42:00Z,00000200,01000000,0004.89,0003.00,0001.97,0001.08,0000.42,0000.63,0001.16,0000.96,0000.49,16.1,22.7,,00.0,0677.3,30.8
2021-05-05T04:43:00Z,00000200,01000000,0004.69,0003.07,0002.15,0001.30,0000.51,0000.35,0001.34,0001.40,0001.14,16.1,22.7,,00.0,0677.3,30.8
2021-05-05T04:44:00Z,00000200,01000000,0004.96,0002.91,0002.10,0000.67,0000.24,0000.44,0001.35,0000.93,0000.85,16.2,22.8,,00.0,0677.3,30.9
2021-05-05T04:45:00Z,00000200,01000000,0004.63,0002.94,0001.64,0001.24,0000.60,0000.55,0001.24,0001.20,0001.00,16.3,22.8,,00.0,0677.3,30.9
2021-05-05T04:46:00Z,00000200,01000000,0004.25,0002.78,0002.03,0000.63,0000.27,0000.55,0000.79,0000.87,0000.66,16.4,22.8,,00.0,0677.3,30.9
2021-05-05T04:47:00Z,00000200,01000000,0005.05,0003.04,0001.66,0001.13,0000.45,0000.48,0001.47,0001.01,0000.79,16.4,22.9,,00.0,0677.3,30.9
2021-05-05T04:48:00Z,00000200,01000000,0004.18,0002.95,0001.76,0000.94,0000.15,0000.18,0001.53,0001.65,0000.78,16.3,22.8,,00.0,0677.3,30.8
2021-05-05T04:49:00Z,00000200,01000000,0004.43,0003.12,0001.95,0000.95,0000.68,0000.64,0001.09,0001.28,0000.88,16.3,22.8,,00.0,0677.3,30.8
2021-05-05T04:50:00Z,00000200,01000000,0003.99,0002.86,0001.84,0000.50,0000.43,0000.59,0001.09,0000.56,0000.79,16.2,22.8,,00.0,0677.3,30.8
2021-05-05T04:51:00Z,00000200,01000000,0004.31,0003.00,0001.66,0000.98,0000.43,0000.63,0001.39,0000.93,0000.71,16.0,22.7,,00.0,0677.3,30.8
2021-05-05T04:52:00Z,00000200,01000000,0004.09,0002.65,0001.92,0000.67,0000.68,0000.63,0000.66,0000.88,0000.61,16.0,22.7,,00.0,0677.3,30.8
2021-05-05T04:53:00Z,00000200,01000000,0004.18,0003.00,0001.95,0000.44,0000.31,0000.64,0001.44,0001.09,0000.60,15.9,22.7,,00.0,0677.3,30.8
2021-05-05T04:54:00Z,00000200,01000000,0004.20,0003.13,0001.89,0000.20,0000.31,0000.39,0001.12,0000.79,0000.95,15.9,22.6,,00.0,0677.3,30.8
2021-05-05T04:55:00Z,00000200,01000000,0004.12,0002.70,0001.91,0000.75,0000.68,0000.47,0001.12,0001.28,0000.75,16.0,22.7,,00.0,0677.3,30.8
2021-05-05T04:56:00Z,00000200,01000000,0005.02,0002.75,0002.01,0000.49,0000.36,0000.41,0001.20,0000.84,0000.80,16.1,22.7,,00.0,0677.3,30.8
2021-05-05T04:57:00Z,00000200,41000000,,,,,,,0000.59,0000.62,0000.06,16.2,22.8,,00.0,0677.2,30.8
2021-05-05T04:58:00Z,00000200,61000000,,,,,,,-000.23,0000.02,0000.19,16.0,22.9,,00.0,0676.2,30.9
2021-05-05T04:59:00Z,00000200,21000000,,,,,,,-000.25,-000.48,-000.19,16.0,23.0,,00.0,0676.2,30.9
